NuSat2
1 41558U 16033C 23236.63860940 .00180901 00000-0 98233-3 0 9995
2 41558 97.4166 356.7725 0007301 236.8047 123.2520 15.79473441404710
Lapan A3
1 41603U 16040E 23236.79948839 .00002728 00000-0 11914-3 0 9996
2 41603 97.1642 259.1988 0014399 76.8846 283.3997 15.22835686397930
Pratham
1 41783U 16059A 23236.50530895 .00000750 00000-0 15058-3 0 9999
2 41783 97.8658 264.5722 0031663 243.0138 116.7831 14.64086972368973
TY-1
1 41844U 16066D 23236.77212048 .00095693 00000-0 10113-2 0 9997
2 41844 97.3620 258.4502 0009589 148.1589 212.0251 15.63824368378369
CAS-2T
1 41847U 16066G 23235.09162955 .00001044 00000-0 16407-3 0 9995
2 41847 98.4997 303.3160 0358750 356.8638 3.0302 14.39953055356438
CAS-4B
1 42759U 17034B 23236.81707379 .00003288 00000-0 16699-3 0 9995
2 42759 43.0149 93.8231 0011033 193.9179 166.1367 15.18637287342066
CAS-4A
1 42761U 17034D 23236.76725857 .00008595 00000-0 41750-3 0 9995
2 42761 43.0141 92.6231 0011916 194.2533 165.7980 15.18649290342069
NIUSat
1 42766U 17036B 23234.74427709 .00032135 00000-0 72270-3 0 9991
2 42766 97.1520 264.7051 0008689 203.7917 156.2931 15.43222778342867
Aalto 1
1 42775U 17036L 23235.07245522 .00019864 00000-0 53004-3 0 9997
2 42775 97.1481 263.2853 0008448 209.0026 151.0751 15.38125953342796
URSA MAIOR
1 42776U 17036M 23235.04140528 .00024954 00000-0 61458-3 0 9993
2 42776 97.1490 264.8138 0008279 203.3849 156.7022 15.40537983342877
Max Valier Sat
1 42778U 17036P 23235.07055247 .00025510 00000-0 59377-3 0 9997
2 42778 97.1484 268.4665 0007154 198.2958 161.8033 15.42250357343027
Pegasus
1 42784U 17036V 23235.08357117 .00055076 00000-0 85762-3 0 9993
2 42784 97.1414 271.9476 0006729 183.8106 176.3098 15.53694157343347
SUCHAI 1
1 42788U 17036Z 23235.08876455 .00173878 00000-0 12631-2 0 9993
2 42788 97.1331 277.0659 0006923 179.6090 180.5181 15.72828138343754
SKCUBE
1 42789U 17036AA 23235.11187021 .00086480 00000-0 10037-2 0 9992
2 42789 97.1359 274.7219 0007085 177.8715 182.2575 15.61465312343525
VENTA 1
1 42791U 17036AC 23235.08923790 .00055738 00000-0 85758-3 0 9997
2 42791 97.1413 273.1815 0005890 179.6913 180.4346 15.54028689343403
Robusta 1B
1 42792U 17036AD 23234.10144066 .00138001 00000-0 12229-2 0 9998
2 42792 97.1334 275.4134 0006433 176.7777 183.3527 15.68140219343496
D-SAT
1 42794U 17036AF 23234.69012706 .00005343 00000-0 41653-3 0 9995
2 42794 97.4693 223.6916 0116997 78.3103 283.1220 14.96256528335906
TechnoSat
1 42829U 17042E 23236.78197392 .00001972 00000-0 18972-3 0 9990
2 42829 97.3879 70.1326 0013354 1.9886 358.1386 14.93994993332739
AO-91
1 43017U 17073E 23235.49354655 .00005713 00000-0 39618-3 0 9995
2 43017 97.6197 117.1909 0229457 206.4550 152.4806 14.87058208311188
PICSAT
1 43132U 18004X 23234.47734901 .00209252 00000-0 14522-2 0 9991
2 43132 97.3185 320.3188 0005802 229.3157 130.7604 15.73810806312913
AO-92
1 43137U 18004AC 23235.20519683 .00047067 00000-0 79426-3 0 9995
2 43137 97.3224 315.3606 0004395 241.0233 119.0579 15.51500842312679
TianYi 2
1 43155U 18008A 23236.80022424 .00020940 00000-0 75837-3 0 9991
2 43155 97.2924 287.7753 0013429 72.0638 288.2065 15.28326116309128
Zhou Enlai
1 43156U 18008B 23236.77742175 .00021369 00000-0 75442-3 0 9998
2 43156 97.2972 287.9865 0010988 74.2648 285.9803 15.29187762309059
TianYi 6
1 43158U 18008D 23235.36510198 .00017090 00000-0 68127-3 0 9990
2 43158 97.2986 283.1956 0011673 82.3450 277.9113 15.25206298308650
S-Net D
1 43186U 18014G 23236.59353708 .00003730 00000-0 29658-3 0 9998
2 43186 97.6170 139.0817 0013459 311.4454 48.5614 15.00968856303818
S-Net B
1 43187U 18014H 23234.59494340 .00004066 00000-0 32297-3 0 9991
2 43187 97.6172 137.0473 0014272 316.7137 43.2965 15.00950406303517
S-Net A
1 43188U 18014J 23234.19495439 .00003816 00000-0 30341-3 0 9998
2 43188 97.6178 136.7477 0014248 318.1719 41.8415 15.00949261303453
S-Net C
1 43189U 18014K 23234.59756916 .00004058 00000-0 32224-3 0 9994
2 43189 97.6181 137.0282 0015034 312.1955 47.7992 15.00947063302065
CubeBel-1
1 43666U 18083E 23236.80164169 .00037639 00000-0 85447-3 0 9995
2 43666 97.3760 269.0159 0007703 215.3560 144.7178 15.42920085267766
Changshagaoxin
1 43669U 18083H 23236.75288556 .00030259 00000-0 79818-3 0 9995
2 43669 97.3761 263.1795 0005687 212.8756 147.2136 15.38419607267477
Ten-Koh
1 43677U 18084G 23235.02509781 .00002752 00000-0 26743-3 0 9996
2 43677 98.0229 16.1887 0013693 289.7496 70.2245 14.93399269262035
PO-101
1 43678U 18084H 23236.72543232 .00001410 00000-0 13901-3 0 9996
2 43678 98.0324 22.1223 0008366 299.3131 60.7252 14.93668775262490
QO-100
1 43700U 18090A 23235.23586566 .00000153 00000-0 00000+0 0 9996
2 43700 0.0256 246.3232 0002322 294.1947 261.4681 1.00272019 17600
Reaktor Hello World
1 43743U 18096AA 23235.19723603 .00112093 00000-0 91923-3 0 9994
2 43743 97.3115 324.6088 0007783 272.0333 88.0038 15.70100756264646
MinXSS-2
1 43758U 18099A 23234.14265121 .00006238 00000-0 47301-3 0 9997
2 43758 97.5952 296.9381 0018155 260.3806 99.5368 15.02461845257649
AO-95
1 43770U 18099N 23235.12499115 .00005762 00000-0 45994-3 0 9999
2 43770 97.5744 294.8737 0013035 285.4748 74.5036 15.00595073257643
RANGE-B
1 43772U 18099Q 23234.11605127 .00007798 00000-0 59103-3 0 9999
2 43772 97.5700 296.8463 0006096 205.7641 154.3281 15.02514914257568
RANGE-A
1 43773U 18099R 23235.10006314 .00003672 00000-0 30758-3 0 9995
2 43773 97.5569 292.7095 0011306 245.9165 114.0875 14.98977179257589
MOVE-II
1 43780U 18099Y 23235.08239456 .00009107 00000-0 64353-3 0 9992
2 43780 97.5653 297.7375 0007066 285.0499 74.9945 15.05103320257793
SNUSat 2
1 43782U 18099AA 23235.16265763 .00004428 00000-0 35673-3 0 9997
2 43782 97.5627 295.4119 0012798 222.3801 137.6435 15.00368421257674
SnugLite
1 43784U 18099AC 23235.08620116 .00005028 00000-0 39828-3 0 9990
2 43784 97.5524 295.0068 0007061 228.1295 131.9327 15.00994495257706
ITASat 1
1 43786U 18099AE 23234.74377999 .00003667 00000-0 29795-3 0 9991
2 43786 97.5723 295.5349 0014575 265.7519 94.2040 15.00124370257621
EAGLET 1
1 43790U 18099AJ 23235.40727874 .00002776 00000-0 23016-3 0 9991
2 43790 97.5727 296.5895 0010264 263.9885 96.0168 14.99586721257455
ESEO
1 43792U 18099AL 23235.23462439 .00002055 00000-0 17906-3 0 9998
2 43792 97.5629 294.6839 0011450 256.5416 103.4530 14.97923840257429
CSIM
1 43793U 18099AM 23235.09238165 .00008773 00000-0 61287-3 0 9994
2 43793 97.5714 299.1576 0013971 255.8271 104.1403 15.05486081257646
Astrocast 0.1
1 43798U 18099AS 23235.10558990 .00008558 00000-0 62552-3 0 9999
2 43798 97.5808 298.4288 0010788 229.6960 130.3324 15.03828471257828
JO-97
1 43803U 18099AX 23235.10119773 .00005737 00000-0 44557-3 0 9999
2 43803 97.5706 296.0038 0011472 230.4164 129.6049 15.01659374257733
Suomi 100
1 43804U 18099AY 23236.78027789 .00005559 00000-0 43522-3 0 9993
2 43804 97.5741 297.3954 0017097 241.7933 118.1565 15.01307262257981
Al Farabi 2
1 43805U 18099AZ 23235.17444656 .00007285 00000-0 54140-3 0 9998
2 43805 97.5568 296.9457 0011472 227.3987 132.6271 15.03246327257815
CHOMPTT
1 43855U 18104G 23234.16739392 .00028147 00000-0 61473-3 0 9999
2 43855 85.0275 121.1564 0014371 73.9727 286.3108 15.43939526260749
